Weather History for Dothan, AL

Change the Weather History Date:

Saturday, January 19, 2013

  Actual Average Record
Temperature  
Mean Temperature 50 °F 49 °F  
Max Temperature 63 °F 60 °F 78 °F (2002)
Min Temperature 37 °F 38 °F 21 °F (1940)
Degree Days  
Heating Degree Days 15 16  
Month to date heating degree days 167 315  
Since 1 July heating degree days 806 1028  
Moisture  
Dew Point 36 °F    
Average Humidity 60    
Maximum Humidity 77    
Minimum Humidity 44    
Precipitation  
Precipitation 0.00 in 0.12 in 2.94 in (1963)
Month to date precipitation 0.15 2.52  
Year to date precipitation 0.15 2.52  
Sea Level Pressure  
Sea Level Pressure 30.36 in    
Wind  
Wind Speed 4 mph (NE)    
Max Wind Speed 9 mph    
Max Gust Speed -    
Visibility 10 miles    
Events      
T = Trace of Precipitation, MM = Missing Value Source: NWS Daily Summary

Daily Weather History Graph

Daily Weather History Graph

Search for Another Location

Airport:

Trip Planner

Search our weather history database for the weather conditions in past years. The results will help you decide how hot, cold, wet, or windy it might be!

Date:

Astronomy

Jan. 19, 2013 Rise Set
Actual Time 6:40 AM CST 5:05 PM CST
Civil Twilight 6:14 AM CST 5:31 PM CST
Nautical Twilight 5:44 AM CST 6:01 PM CST
Astronomical Twilight 5:15 AM CST 6:30 PM CST
Moon 11:26 AM CST (1/19) 12:19 AM CST (1/19)
Length of Visible Light 11h 17m
Length of Day
10h 25m
First Quarter, 57% of the Moon is Illuminated
Jan 19
First Quarter
Jan 26
Full
Feb 3
Last Quarter
Feb 10
New
Feb 17
First Quarter

Hourly Weather History & Observations

Time (CST) Temp. Windchill Dew Point Humidity Pressure Visibility Wind Dir Wind Speed Gust Speed Precip Events Conditions
12:53 AM 42.1 °F 39.2 °F 28.0 °F 58% 30.43 in 10.0 mi ENE 4.6 mph - N/A   Clear
1:53 AM 42.1 °F 37.7 °F 28.0 °F 58% 30.42 in 10.0 mi East 6.9 mph - N/A   Clear
2:53 AM 39.9 °F 35.8 °F 28.0 °F 63% 30.41 in 10.0 mi ENE 5.8 mph - N/A   Clear
3:53 AM 37.9 °F 35.5 °F 28.0 °F 68% 30.41 in 10.0 mi NE 3.5 mph - N/A   Clear
4:53 AM 39.9 °F 35.1 °F 28.0 °F 63% 30.40 in 10.0 mi East 6.9 mph - N/A   Clear
5:53 AM 39.9 °F 35.8 °F 27.0 °F 60% 30.41 in 10.0 mi ENE 5.8 mph - N/A   Clear
6:53 AM 39.0 °F 35.7 °F 27.0 °F 62% 30.43 in 10.0 mi NE 4.6 mph - N/A   Clear
7:53 AM 39.9 °F 35.8 °F 28.0 °F 63% 30.45 in 10.0 mi NNE 5.8 mph - N/A   Scattered Clouds
8:53 AM 46.9 °F - 28.0 °F 48% 30.45 in 10.0 mi NE 9.2 mph - N/A   Partly Cloudy
9:53 AM 51.1 °F - 30.0 °F 44% 30.45 in 10.0 mi ENE 5.8 mph - N/A   Mostly Cloudy
10:53 AM 55.0 °F - 35.1 °F 47% 30.42 in 10.0 mi ENE 4.6 mph - N/A   Mostly Cloudy
11:53 AM 57.0 °F - 37.0 °F 47% 30.37 in 10.0 mi East 4.6 mph - N/A   Overcast
12:53 PM 57.9 °F - 37.9 °F 47% 30.33 in 10.0 mi North 3.5 mph - N/A   Overcast
1:53 PM 61.0 °F - 39.9 °F 46% 30.31 in 10.0 mi Variable 3.5 mph - N/A   Mostly Cloudy
2:53 PM 61.0 °F - 39.9 °F 46% 30.30 in 10.0 mi North 5.8 mph - N/A   Mostly Cloudy
3:53 PM 61.0 °F - 41.0 °F 48% 30.28 in 10.0 mi Calm Calm - N/A   Partly Cloudy
4:53 PM 57.9 °F - 43.0 °F 58% 30.28 in 10.0 mi Calm Calm - N/A   Clear
5:53 PM 52.0 °F - 44.1 °F 74% 30.30 in 10.0 mi NNW 3.5 mph - N/A   Clear
6:53 PM 52.0 °F - 45.0 °F 77% 30.31 in 10.0 mi North 3.5 mph - N/A   Mostly Cloudy
7:53 PM 53.1 °F - 43.0 °F 69% 30.31 in 10.0 mi North 3.5 mph - N/A   Overcast
8:53 PM 52.0 °F - 45.0 °F 77% 30.31 in 10.0 mi Calm Calm - N/A   Overcast
9:53 PM 52.0 °F - 44.1 °F 74% 30.29 in 10.0 mi Calm Calm - N/A   Overcast
10:53 PM 53.1 °F - 44.1 °F 71% 30.27 in 10.0 mi Calm Calm - N/A   Overcast
11:53 PM 53.1 °F - 45.0 °F 74% 30.27 in 10.0 mi Calm Calm - N/A   Overcast